Temp
-7 -7 -7 -7 -7 -7 -7 -7 -7 -6 -6 -5 -5 -5 -5 -5 -6 -5 -6 -6 -6 -6 -6 -6 -6 -7 -7 -7 -6 -5 -4 -8 -7 -6 -6 -6 -4 -4 -4 -3 -4 -3 -4 -4 -5
-7 -7 -7 -7 -7 -7 -7 -7 -7 -7 -6 -6 -5 -5 -5 -5 -5 -5 -6 -5 -6 -6 -6 -6 -6 -6 -7 -7 -6 -6 -7 -8 -7 -7 -6 -5 -6 -4 -4 -3 -3 -3 -4 -4 -4
-6 -6 -7 -7 -7 -7 -6 -6 -6 -6 -6 -6 -6 -5 -5 -4 -4 -5 -5 -5 -5 -6 -6 -6 -6 -6 -7 -6 -6 -6 -7 -8 -7 -7 -6 -6 -5 -4 -3 -3 -4 -4 -4 -4 -4
-6 -6 -6 -6 -6 -6 -6 -6 -6 -6 -6 -6 -6 -6 -5 -5 -4 -5 -5 -5 -5 -6 -6 -6 -6 -6 -6 -6 -7 -7 -7 -7 -8 -8 -7 -5 -4 -4 -3 -3 -3 -4 -4 -4 -4
-6 -6 -6 -6 -6 -6 -6 -6 -6 -6 -6 -6 -6 -6 -6 -5 -5 -4 -4 -5 -5 -5 -6 -6 -6 -6 -6 -7 -7 -7 -8 -8 -8 -8 -6 -6 -4 -3 -3 -3 -4 -4 -4 -4 -4
-6 -6 -6 -6 -6 -6 -6 -6 -6 -6 -6 -6 -6 -6 -6 -6 -5 -5 -5 -5 -5 -5 -6 -6 -6 -6 -6 -7 -6 -6 -8 -8 -8 -8 -7 -5 -3 -3 -3 -3 -4 -4 -4 -4 -4
-6 -6 -6 -6 -6 -6 -6 -6 -6 -6 -6 -6 -6 -6 -6 -6 -6 -6 -5 -5 -5 -5 -6 -6 -6 -6 -7 -6 -6 -5 -8 -8 -8 -7 -6 -4 -5 -3 -3 -3 -4 -4 -4 -4 -4
-8 -8 -8 -8 -7 -7 -7 -6 -6 -6 -6 -6 -6 -6 -6 -6 -6 -6 -6 -5 -5 -5 -5 -6 -6 -6 -5 -6 -7 -5 -6 -7 -8 -7 -7 -5 -3 -3 -3 -3 -3 -4 -4 -4 -4
-10 -10 -9 -9 -9 -9 -8 -8 -7 -6 -6 -6 -6 -6 -6 -6 -6 -6 -6 -6 -5 -5 -5 -5 -5 -5 -6 -6 -5 -5 -5 -7 -7 -7 -7 -5 -3 -3 -3 -3 -3 -3 -3 -4 -4
-12 -12 -11 -11 -11 -11 -11 -10 -9 -8 -7 -6 -6 -6 -6 -6 -6 -6 -6 -6 -6 -5 -5 -5 -6 -6 -5 -5 -4 -5 -6 -6 -8 -6 -7 -5 -4 -3 -4 -3 -3 -3 -3 -3 -4
-13 -13 -13 -13 -13 -13 -12 -12 -11 -9 -9 -8 -7 -6 -6 -6 -7 -6 -6 -7 -6 -5 -5 -5 -5 -5 -5 -5 -6 -6 -6 -7 -7 -7 -6 -6 -5 -4 -4 -4 -3 -3 -3 -3 -3
-14 -14 -14 -13 -13 -13 -13 -13 -12 -11 -10 -9 -8 -6 -7 -6 -6 -6 -7 -6 -6 -6 -6 -5 -5 -5 -6 -6 -6 -6 -6 -8 -7 -7 -6 -6 -5 -6 -4 -4 -3 -3 -3 -3 -3
-14 -14 -14 -14 -14 -14 -14 -14 -14 -13 -12 -11 -9 -7 -7 -7 -6 -7 -7 -7 -6 -6 -6 -5 -5 -6 -6 -6 -6 -6 -5 -7 -7 -7 -7 -6 -6 -6 -6 -4 -3 -4 -3 -4 -3
-13 -13 -14 -14 -14 -14 -14 -14 -14 -14 -13 -12 -11 -10 -9 -8 -7 -7 -7 -7 -7 -6 -7 -6 -6 -6 -6 -6 -6 -6 -5 -7 -8 -8 -6 -7 -7 -5 -4 -6 -4 -4 -4 -3 -3
-13 -13 -13 -14 -14 -14 -14 -14 -14 -14 -14 -14 -12 -11 -10 -9 -8 -7 -7 -7 -7 -7 -7 -6 -6 -6 -6 -6 -6 -5 -7 -7 -8 -7 -7 -7 -6 -5 -5 -5 -4 -5 -4 -4 -3
-13 -13 -13 -14 -14 -14 -14 -14 -14 -14 -14 -14 -15 -14 -12 -11 -9 -9 -8 -7 -8 -8 -7 -6 -6 -6 -6 -6 -6 -6 -7 -7 -8 -8 -6 -6 -6 -6 -6 -5 -4 -4 -5 -5 -4
-13 -13 -13 -13 -14 -14 -14 -14 -14 -14 -15 -15 -15 -15 -15 -13 -12 -11 -10 -8 -8 -8 -7 -7 -7 -6 -7 -6 -6 -6 -7 -7 -8 -9 -4 -6 -7 -6 -6 -3 -4 -5 -5 -5 -4
-13 -13 -13 -14 -14 -14 -14 -14 -14 -15 -15 -15 -15 -15 -16 -14 -12 -12 -11 -10 -9 -8 -8 -7 -7 -7 -6 -6 -6 -6 -6 -7 -8 -8 -7 -6 -5 -6 -7 -5 -5 -5 -6 -4 -4
-13 -13 -13 -13 -14 -14 -14 -14 -15 -15 -14 -14 -15 -14 -14 -14 -14 -14 -13 -11 -10 -10 -8 -8 -8 -8 -7 -6 -7 -6 -7 -6 -7 -8 -7 -6 -6 -6 -6 -6 -6 -6 -7 -6 -6
-13 -13 -14 -14 -14 -14 -15 -15 -15 -15 -14 -14 -15 -15 -14 -14 -14 -14 -14 -13 -13 -12 -11 -8 -9 -9 -8 -8 -7 -7 -7 -7 -7 -7 -7 -6 -6 -6 -5 -5 -6 -6 -4 -6 -5
-14 -13 -13 -14 -14 -15 -15 -16 -15 -15 -14 -15 -15 -15 -14 -14 -14 -14 -15 -14 -14 -14 -12 -11 -10 -9 -10 -10 -8 -7 -8 -8 -7 -7 -7 -6 -5 -6 -5 -5 -6 -5 -4 -4 -4
-14 -14 -14 -14 -15 -15 -15 -15 -15 -16 -16 -16 -16 -16 -16 -15 -15 -14 -14 -15 -14 -14 -14 -12 -11 -10 -8 -10 -10 -7 -8 -7 -7 -6 -5 -6 -6 -6 -6 -6 -7 -6 -5 -5 -4
-14 -14 -14 -15 -15 -16 -16 -16 -16 -17 -19 -18 -18 -18 -17 -16 -15 -15 -15 -14 -14 -14 -14 -13 -11 -10 -10 -10 -10 -10 -8 -7 -6 -6 -6 -6 -5 -8 -6 -6 -6 -7 -7 -6 -7
-14 -14 -14 -15 -15 -16 -17 -18 -19 -20 -19 -20 -19 -19 -18 -18 -17 -15 -15 -14 -14 -14 -13 -12 -11 -10 -10 -9 -10 -10 -9 -8 -8 -6 -5 -5 -6 -7 -7 -7 -7 -6 -7 -7 -7
-14 -14 -15 -16 -16 -17 -18 -19 -20 -21 -21 -21 -20 -20 -20 -18 -17 -15 -16 -15 -14 -13 -14 -12 -11 -9 -9 -9 -10 -10 -9 -9 -8 -6 -5 -6 -7 -7 -7 -6 -6 -6 -7 -7 -6
-14 -15 -16 -16 -17 -19 -20 -21 -22 -22 -21 -21 -21 -20 -20 -20 -19 -17 -16 -16 -15 -14 -14 -13 -11 -10 -9 -9 -10 -9 -9 -9 -8 -7 -6 -6 -7 -7 -8 -7 -7 -7 -7 -7 -7
-15 -15 -15 -16 -17 -20 -21 -23 -23 -23 -24 -24 -24 -23 -22 -20 -19 -18 -16 -16 -15 -15 -14 -13 -11 -10 -9 -9 -9 -9 -9 -9 -9 -7 -6 -6 -6 -7 -8 -7 -7 -7 -6 -7 -8
Height
5872 5871 5871 5869 5869 5868 5868 5868 5868 5868 5868 5868 5870 5872 5874 5876 5877 5881 5884 5884 5888 5890 5893 5896 5899 5900 5902 5905 5903 5903 5901 5902 5908 5910 5909 5905 5903 5901 5904 5905 5908 5905 5905 5905 5906
5868 5867 5866 5865 5864 5864 5864 5864 5864 5864 5863 5864 5865 5867 5869 5871 5873 5877 5880 5882 5885 5887 5890 5893 5895 5898 5901 5904 5904 5902 5904 5906 5906 5908 5906 5907 5906 5905 5905 5907 5909 5905 5906 5907 5907
5863 5862 5860 5860 5858 5859 5859 5859 5859 5859 5859 5859 5860 5861 5863 5865 5869 5874 5875 5878 5881 5884 5887 5890 5892 5896 5898 5901 5902 5900 5903 5906 5908 5909 5906 5908 5908 5906 5906 5908 5907 5907 5908 5908 5908
5857 5856 5854 5853 5852 5851 5852 5853 5853 5853 5854 5854 5855 5856 5857 5860 5865 5868 5870 5874 5877 5880 5884 5887 5889 5893 5897 5899 5901 5901 5902 5906 5916 5912 5909 5909 5908 5909 5911 5911 5909 5909 5909 5908 5909
5850 5848 5847 5846 5845 5844 5844 5844 5845 5846 5847 5849 5850 5851 5853 5857 5856 5863 5864 5868 5872 5876 5879 5882 5886 5888 5893 5897 5898 5899 5905 5912 5914 5911 5910 5911 5908 5910 5911 5912 5910 5910 5910 5909 5908
5841 5839 5838 5836 5836 5836 5835 5835 5836 5838 5839 5841 5844 5845 5849 5851 5851 5856 5858 5862 5867 5872 5875 5878 5883 5886 5889 5892 5896 5897 5900 5910 5911 5910 5911 5909 5908 5910 5912 5912 5910 5910 5909 5910 5910
5829 5828 5826 5825 5824 5825 5825 5826 5827 5828 5830 5833 5835 5839 5844 5841 5847 5850 5854 5856 5861 5867 5871 5875 5878 5881 5885 5889 5893 5894 5897 5902 5908 5910 5909 5908 5908 5909 5911 5912 5911 5911 5911 5912 5912
5817 5815 5813 5812 5811 5812 5813 5814 5815 5818 5820 5823 5826 5831 5837 5835 5840 5845 5846 5850 5854 5860 5865 5869 5872 5877 5881 5886 5889 5893 5896 5899 5903 5906 5908 5907 5908 5910 5911 5912 5912 5913 5913 5913 5914
5806 5803 5801 5799 5798 5799 5799 5801 5803 5806 5809 5812 5817 5822 5827 5830 5833 5837 5840 5844 5848 5853 5858 5862 5866 5871 5876 5882 5887 5892 5894 5896 5898 5903 5906 5905 5908 5911 5911 5913 5913 5915 5914 5914 5914
5796 5792 5790 5788 5787 5787 5787 5788 5789 5793 5796 5800 5806 5815 5817 5819 5823 5831 5835 5837 5842 5845 5851 5857 5861 5866 5871 5877 5886 5892 5893 5894 5899 5904 5904 5905 5910 5910 5913 5913 5915 5916 5914 5915 5915
5787 5783 5781 5779 5777 5777 5778 5777 5780 5782 5784 5788 5794 5801 5807 5811 5817 5824 5827 5830 5834 5837 5844 5851 5855 5860 5869 5875 5883 5888 5891 5896 5900 5902 5902 5908 5909 5911 5910 5913 5915 5917 5917 5917 5917
5779 5776 5773 5771 5769 5768 5769 5769 5768 5769 5776 5774 5780 5788 5794 5799 5809 5816 5820 5824 5827 5834 5839 5841 5846 5859 5865 5871 5878 5882 5884 5889 5896 5895 5898 5906 5904 5905 5908 5914 5915 5915 5918 5919 5919
5774 5769 5766 5765 5763 5762 5762 5761 5760 5760 5762 5772 5767 5776 5783 5787 5802 5806 5810 5816 5821 5826 5829 5833 5851 5855 5859 5865 5871 5878 5884 5885 5884 5894 5896 5899 5900 5902 5903 5910 5914 5914 5917 5920 5921
5769 5765 5762 5760 5760 5758 5758 5757 5755 5754 5755 5758 5760 5765 5771 5778 5789 5795 5802 5808 5812 5819 5824 5830 5841 5844 5852 5857 5866 5874 5883 5885 5887 5891 5895 5892 5889 5891 5897 5904 5909 5912 5916 5920 5921
5766 5762 5759 5758 5756 5755 5754 5753 5752 5751 5754 5751 5750 5757 5761 5768 5777 5784 5792 5797 5805 5813 5816 5828 5831 5835 5840 5852 5860 5873 5878 5882 5884 5888 5889 5890 5888 5878 5893 5901 5903 5909 5914 5917 5920
5761 5759 5756 5753 5751 5749 5747 5747 5747 5749 5751 5753 5752 5750 5754 5758 5766 5773 5781 5788 5798 5805 5807 5819 5822 5829 5839 5847 5856 5867 5872 5876 5881 5880 5880 5887 5888 5884 5884 5900 5903 5903 5910 5915 5918
5755 5752 5750 5746 5742 5740 5739 5739 5741 5742 5744 5747 5744 5745 5746 5749 5753 5761 5770 5778 5786 5792 5798 5808 5811 5819 5827 5839 5847 5857 5863 5869 5872 5874 5873 5885 5888 5895 5891 5896 5898 5901 5906 5913 5914
5749 5746 5743 5738 5733 5731 5729 5728 5730 5732 5733 5735 5738 5740 5740 5744 5747 5751 5756 5768 5778 5785 5795 5801 5806 5814 5823 5829 5840 5849 5857 5859 5864 5871 5875 5882 5885 5894 5890 5893 5883 5897 5903 5908 5916
5743 5740 5737 5730 5726 5723 5721 5720 5721 5722 5722 5726 5729 5733 5736 5741 5741 5743 5749 5754 5767 5777 5786 5792 5801 5809 5817 5825 5832 5841 5845 5859 5862 5868 5876 5882 5885 5891 5895 5893 5895 5901 5907 5906 5911
5739 5733 5731 5725 5717 5714 5713 5712 5712 5710 5711 5713 5718 5720 5724 5731 5734 5732 5738 5751 5760 5771 5779 5787 5790 5799 5809 5819 5824 5831 5843 5851 5854 5862 5868 5874 5881 5885 5891 5897 5901 5902 5902 5900 5907
5731 5725 5721 5715 5708 5705 5704 5703 5700 5696 5700 5703 5707 5710 5713 5721 5727 5729 5733 5741 5740 5749 5761 5771 5781 5792 5796 5805 5818 5825 5830 5839 5851 5856 5860 5869 5875 5880 5886 5891 5893 5895 5893 5898 5904
5724 5718 5711 5704 5700 5697 5694 5690 5687 5684 5686 5688 5691 5694 5699 5708 5717 5722 5730 5730 5731 5740 5748 5756 5769 5780 5789 5799 5812 5822 5826 5833 5841 5851 5858 5866 5875 5874 5871 5878 5885 5888 5890 5892 5897
5717 5709 5703 5698 5691 5687 5682 5677 5673 5673 5669 5670 5673 5678 5686 5696 5704 5711 5720 5724 5726 5730 5737 5750 5760 5774 5783 5792 5798 5805 5818 5826 5837 5848 5853 5860 5869 5867 5872 5873 5875 5882 5891 5892 5896
5709 5702 5693 5685 5679 5674 5667 5662 5659 5655 5652 5654 5658 5660 5667 5673 5681 5695 5711 5719 5715 5718 5726 5733 5746 5759 5767 5781 5794 5803 5811 5819 5829 5837 5850 5853 5864 5861 5869 5869 5874 5877 5890 5895 5898
5703 5694 5685 5676 5667 5659 5653 5648 5644 5642 5640 5639 5641 5646 5653 5660 5667 5682 5698 5696 5709 5719 5722 5725 5736 5751 5765 5777 5784 5788 5802 5812 5818 5832 5841 5853 5858 5862 5865 5864 5872 5875 5886 5892 5897
5695 5686 5675 5666 5656 5647 5640 5636 5634 5632 5631 5629 5629 5628 5635 5643 5652 5663 5677 5688 5703 5713 5715 5717 5730 5742 5756 5767 5775 5783 5789 5806 5813 5824 5838 5846 5854 5865 5859 5865 5868 5874 5876 5883 5885
5687 5677 5667 5657 5645 5637 5632 5627 5627 5624 5624 5619 5617 5618 5621 5626 5637 5649 5662 5675 5695 5704 5712 5715 5723 5736 5753 5761 5770 5776 5785 5794 5808 5817 5829 5838 5852 5860 5852 5858 5861 5866 5867 5873 5881
Wind_Speed
18 17 17 18 18 18 17 17 17 19 22 23 23 23 24 24 21 17 18 25 21 18 17 18 15 15 11 7 6 15 13 23 18 9 9 3 11 12 9 11 5 5 6 4 0
20 21 22 22 22 21 21 20 19 18 19 21 23 22 23 24 24 19 20 22 21 20 18 20 20 18 13 18 18 17 23 18 11 18 14 6 7 6 8 8 9 10 8 4 3
23 23 24 24 25 26 25 23 22 22 21 20 19 22 24 24 23 21 23 22 22 22 20 20 21 21 17 22 13 5 20 18 11 16 13 4 9 5 6 9 9 8 7 5 4
27 27 27 27 27 27 27 27 27 25 24 22 20 20 22 24 25 23 24 24 24 24 21 20 22 24 20 23 18 10 15 16 10 14 8 2 3 2 4 7 7 6 6 6 5
33 33 33 32 31 31 30 28 29 29 28 25 24 22 20 19 27 24 28 25 24 24 23 23 22 24 22 25 24 17 12 8 11 12 12 11 10 0 2 5 6 7 7 6 6
35 37 37 38 38 36 35 34 31 30 30 30 28 25 21 18 25 24 29 29 26 23 24 25 21 23 24 26 26 18 14 8 8 11 6 13 6 4 2 1 5 7 8 5 5
38 40 40 40 39 40 41 40 38 35 32 31 32 29 23 28 21 21 27 30 31 27 26 26 27 28 25 25 24 23 18 14 9 6 14 12 11 7 3 1 5 5 6 3 4
37 39 40 41 41 41 42 43 44 41 38 35 33 32 27 31 25 20 26 30 32 33 31 30 29 29 30 28 23 19 16 20 14 13 4 11 14 7 6 1 2 3 5 2 4
37 39 39 40 42 41 42 43 44 46 44 41 38 33 32 32 30 26 25 27 32 34 35 35 33 32 32 32 25 19 17 20 18 16 9 15 13 8 6 3 1 3 5 4 3
36 36 36 35 35 36 37 40 43 44 46 47 43 37 36 37 36 28 25 25 30 34 38 37 36 32 31 31 25 19 19 19 14 15 12 6 5 4 6 4 3 5 5 5 2
34 34 33 32 33 32 31 33 35 40 43 47 46 42 40 39 35 33 30 29 29 37 36 37 39 36 30 27 22 23 22 9 9 8 10 13 3 14 15 14 8 5 5 6 4
27 29 30 29 28 27 26 27 30 35 33 42 43 47 42 44 38 35 35 33 31 30 34 40 42 33 31 29 27 31 30 21 20 21 24 17 9 13 11 11 11 5 4 5 6
29 28 25 24 24 21 17 19 23 27 32 26 41 46 43 46 37 38 40 36 31 30 36 40 30 34 34 31 33 34 31 30 25 30 26 24 27 23 13 18 13 6 3 5 5
23 22 20 16 10 14 17 18 22 24 25 23 29 35 39 41 40 40 41 40 38 33 31 36 33 39 39 37 35 37 32 28 17 18 21 32 42 34 18 16 15 6 3 3 4
22 22 20 16 19 20 20 21 20 21 20 14 22 22 28 34 39 42 41 44 41 35 36 30 38 42 46 41 37 31 35 32 18 17 23 30 31 35 14 19 13 3 5 4 5
25 25 22 24 24 26 26 26 25 19 11 2 11 20 18 21 31 39 44 46 41 39 38 31 38 42 40 41 38 37 40 35 20 26 26 27 21 19 20 19 18 13 2 5 8
28 28 29 30 30 31 32 32 30 23 14 13 14 10 18 22 30 34 41 47 47 47 44 37 40 44 42 43 44 41 46 41 31 35 28 10 10 6 27 15 13 13 12 11 13
24 24 28 29 30 29 30 30 27 22 21 28 27 25 17 25 33 36 39 46 47 47 44 41 41 40 44 46 47 44 50 49 37 33 29 13 17 10 23 18 25 14 19 17 16
23 28 32 30 29 27 27 26 21 20 27 31 34 34 32 21 23 35 38 44 45 46 48 45 40 35 37 44 47 49 50 50 39 34 25 16 18 21 16 21 18 22 38 42 24
26 31 30 32 34 31 24 24 25 32 34 35 38 40 40 33 27 38 40 38 26 27 44 47 45 36 33 37 47 48 44 47 48 35 28 26 25 28 24 23 19 27 16 28 19
29 33 37 34 31 25 24 25 31 39 40 42 40 42 44 38 36 32 40 36 35 39 44 48 44 45 35 31 45 49 46 46 44 40 36 29 26 26 21 15 16 15 13 14 12
31 37 39 36 31 26 26 31 37 41 40 41 42 45 48 46 41 38 40 38 42 38 45 48 48 45 44 35 26 44 49 50 50 45 40 34 25 31 29 35 12 13 12 10 10
34 39 37 31 30 29 31 36 39 38 40 41 43 41 42 44 46 43 41 50 43 41 48 49 53 47 45 43 43 38 47 50 50 47 41 42 36 34 24 16 22 11 14 12 13
37 38 40 38 37 35 34 34 32 37 43 41 41 44 45 50 54 52 47 48 52 51 57 60 59 58 56 51 40 38 34 46 50 55 43 44 29 37 25 23 22 20 23 27 27
35 42 41 38 37 36 33 31 32 33 36 38 38 40 43 49 55 54 52 60 57 54 58 66 64 63 56 51 42 42 36 42 50 52 53 38 29 23 22 33 42 38 30 27 29
39 41 41 38 39 35 28 25 25 25 28 35 40 43 40 47 51 58 59 61 57 52 62 68 64 68 60 54 46 42 39 34 44 49 57 43 37 21 28 21 29 37 32 30 43
40 41 39 41 40 30 19 17 17 27 25 14 11 22 31 49 53 57 63 62 57 58 59 68 68 70 61 54 46 49 46 44 32 47 56 55 38 26 31 33 23 23 41 28 19
Wind_Direction
286 283 281 282 280 278 276 277 275 269 262 262 258 254 250 248 247 232 230 225 216 222 211 210 202 202 189 158 154 123 89 47 18 1 342 308 348 341 333 25 53 3 3 341 18
292 286 281 276 274 274 274 273 272 272 271 263 259 255 252 247 244 234 229 228 224 222 221 211 205 203 183 157 142 109 88 74 19 319 315 196 331 346 337 22 45 40 35 18 59
293 291 287 281 275 270 267 267 267 267 268 267 263 254 250 246 240 233 227 231 223 225 222 216 215 206 192 178 187 190 110 69 1 322 279 292 278 341 341 14 48 39 40 39 57
291 288 284 282 279 274 270 264 261 261 261 262 263 259 250 244 240 231 230 226 222 223 222 221 220 211 200 184 200 98 59 51 257 300 251 230 258 351 56 40 44 46 47 46 59
287 285 283 278 276 274 271 267 263 258 256 256 256 256 256 248 241 227 229 225 223 218 222 224 218 215 206 190 200 140 103 122 308 303 250 225 252 41 3 55 47 39 42 34 50
288 283 282 278 272 268 267 267 263 259 255 252 251 252 251 251 241 227 231 226 222 217 221 224 221 215 206 197 200 164 153 172 253 279 242 223 225 206 170 346 50 32 28 29 61
289 281 276 273 271 266 264 262 261 259 255 251 248 245 245 245 245 241 226 226 221 214 211 218 217 219 204 202 210 193 173 180 168 283 218 241 229 233 249 29 53 27 24 42 90
290 283 279 273 268 265 261 260 258 256 255 251 247 242 236 242 243 229 231 223 222 215 211 214 217 217 217 207 204 204 176 145 153 254 278 247 226 216 235 205 44 6 21 44 126
289 285 280 276 272 268 263 260 258 254 251 249 246 242 236 237 237 231 231 225 220 217 214 212 221 216 213 213 209 206 190 159 174 232 264 234 234 205 224 238 354 329 13 21 140
289 287 285 284 280 277 273 267 262 256 253 246 245 240 237 234 231 230 232 230 221 219 215 213 215 217 219 214 214 208 190 168 206 202 242 258 267 184 253 272 276 290 6 1 119
295 293 289 288 286 283 279 277 265 259 256 250 243 239 236 235 232 228 224 225 222 219 216 214 214 216 212 212 198 193 179 145 261 195 255 234 261 258 245 276 236 270 328 356 14
312 306 300 295 290 287 285 281 275 268 256 255 247 235 236 232 230 225 223 227 226 221 218 216 214 211 213 209 198 191 174 175 209 234 238 267 212 279 261 252 236 219 279 348 9
315 315 306 302 297 293 299 298 290 278 271 248 249 240 233 234 223 223 223 222 225 220 219 219 208 212 214 210 200 191 193 182 196 209 232 269 220 218 237 245 208 233 249 309 346
327 317 313 306 303 301 301 305 303 300 289 278 255 251 239 233 223 221 223 219 220 218 219 219 204 206 210 211 203 198 191 177 218 253 239 268 241 213 191 234 218 188 244 248 294
327 322 312 294 292 298 299 299 305 300 319 302 280 248 241 233 222 217 217 219 219 216 220 209 208 206 205 206 204 185 190 177 216 245 253 238 242 233 202 206 221 174 152 224 247
319 317 313 308 298 290 292 294 295 294 290 122 318 312 247 222 215 213 214 216 214 217 219 207 208 209 209 201 203 184 196 181 204 252 242 199 253 274 273 250 230 204 285 187 219
311 312 310 302 294 287 282 283 285 277 247 190 194 197 260 188 188 207 205 212 213 212 212 208 211 207 201 204 197 196 192 189 195 219 226 188 225 232 248 254 200 233 275 215 217
320 324 326 305 296 290 285 282 281 273 243 209 217 217 225 210 194 194 195 204 210 214 213 213 214 208 205 200 200 196 198 198 203 208 227 210 222 203 257 251 228 215 259 259 242
319 325 341 319 306 296 288 282 276 254 253 239 240 245 239 241 210 194 193 195 209 211 211 213 213 211 213 206 199 196 207 203 207 206 217 192 247 252 247 264 262 234 272 256 234
321 320 334 324 312 300 286 274 265 259 255 249 237 230 235 232 223 197 191 191 190 208 217 213 210 203 197 212 203 200 201 206 209 203 203 208 224 252 258 262 264 260 264 245 212
327 325 330 322 310 295 280 274 264 259 259 258 247 239 235 232 228 227 190 179 188 194 201 207 213 201 184 200 207 200 202 205 206 197 204 200 200 229 250 254 273 287 311 188 280
329 329 330 328 313 298 289 277 277 272 271 261 255 246 236 229 229 229 218 178 187 190 194 205 200 193 197 186 197 217 207 208 205 198 200 199 196 227 232 227 233 274 290 278 287
331 331 328 321 311 302 292 285 281 276 273 263 252 241 240 232 221 217 217 199 192 189 190 197 198 190 189 188 194 202 214 212 207 196 202 193 181 244 241 247 172 189 247 229 239
335 332 329 327 318 308 294 288 277 268 260 254 251 246 231 222 219 207 204 207 202 192 191 195 197 189 187 185 189 205 216 213 210 199 195 192 198 225 222 237 215 190 217 215 227
339 333 330 326 317 306 296 281 272 264 261 262 252 245 238 227 223 211 198 208 208 199 194 198 195 192 189 184 186 194 212 220 207 204 200 194 196 245 253 217 223 197 198 216 226
337 333 332 330 320 310 295 283 275 273 271 268 259 254 238 227 223 213 204 205 207 205 201 199 194 190 182 180 182 196 192 226 216 202 202 196 196 218 250 202 208 214 188 212 218
343 341 336 331 325 313 304 277 273 286 295 274 262 255 253 237 219 213 206 204 201 209 205 204 194 191 178 176 182 194 193 202 229 212 201 203 190 195 247 249 225 196 195 185 212